Location: Exeidioux
(45.6312°N, 1.6819°E)
Time: 20:47:42
(UTC+00:00)

CZ-2C R/B - Pass Details

Date: 03 March 2021
Orbit: 784 x 871 km, 98.2° (Epoch: 12 April)

Event Time Altitude Azimuth Distance (km) Brightness Sun altitude
Rises 18:01:19 0° 24° (NNE) 3,426 5.6 -4.0°
Reaches altitude 10° 18:04:09 10° 37° (NE) 2,472 4.7 -4.5°
Maximum altitude 18:08:37 25° 92° (E) 1,614 3.6 -5.3°
Drops below altitude 10° 18:12:59 10° 147° (SSE) 2,409 4.8 -6.0°
Sets 18:15:42 0° 160° (SSE) 3,321 5.6 -6.5°
